Погода в Урюпинске

Погода в Урюпинске : погода сейчас, прогноз погоды и архив. Всё, что Вы хотите узнать о погоде в Урюпинске!

Хотите узнать прогноз погоды в Урюпинске? Тогда Вам сюда: Погода в Урюпинске

Поиск расширенной информации на нашем сайте:

Другие новости

Новости СМИ2

Главная страница сайта

Новости сайта

03.07.2017

Напоминаем, что на нашем специализированном сайте Метеоцентр.Азия вы можете получить высокодетализированные автоматические прогнозы погоды по пунктам России, СНГ и мира в авиационном формате (включающие направление и скорость ветра, видимость, явления погоды, количество и форму облачности, нижнюю и верхнюю границу облачности).


Погода в Урюпинске - сегодня

Время (UTC), дата Ветер
(°,м/с) 
Видим.   Явления Облачность Т
(°С)
Тd
(°С)
f(%) Тe
(°С)
Pmin
(гПа)
dP
(гПа)
Po
(мм)
O2
(г/м3)
Тmin Tmax R s Состояние
почвы
18 20.06.18 270 (З) 10 км    3/0 средняя 
[Ac trans]
+23.5 +11.8 48 +27  1010.5  0.9  749  276           
21 20.06.18 270 (З) 10 км    ясно 
+19.3 +11.6 61 +23  1012  1.3  750  280           
00 21.06.18 280 (З) 10 км    ясно 
+14.9 +10.8 76 +18  1013.3  1.1  751  285           
06 21.06.18 290 (З) 20000 м    ясно 
+22.7 +8 39 +23  1014.7  0.5  752  278           
09 21.06.18 300 (СЗ) 20000 м    ясно 
+25.5 +6.2 29 +26  1013.8  -0.8  751  276           
12 21.06.18 280 (З) 6{10}  20000 м    ясно 
+27.6 +6.2 26 +28  1012.8  -0.9  750  274           
18 21.06.18 310 (СЗ) 10 км    ясно 
+21.4 +8.6 44 +21  1013.5  0.9  751  279           
21 21.06.18 220 (ЮЗ) 10 км    ясно 
+17.3 +9.6 61 +20  1013.9  0.2  751  283           
00 22.06.18 тихо ()   10 км    ясно 
+12.9 +8.6 75 +13  1014.8  0.7  752  288           
06 22.06.18 270 (З) 20000 м    ясно 
+25.8 +9 35 +26  1014.5  0.1  752  275           
09 22.06.18 020 (С) 20000 м    ясно 
+29.1 +6.9 25 +29  1013.7  -0.6  751  272           
12 22.06.18 260 (З) 20000 м    ясно 
+30.4 +7.6 24 +30  1012.4  -1.2  750  271           
15 22.06.18 290 (З) 20000 м    ясно 
+30.9 +6.7 22 +31  1011.3  -1.1  749  270    +31.3       
18 22.06.18 060 (СВ) 20000 м    ясно 
+23.3 +8.4 39 +23  1012.1  0.5  750  277           
21 22.06.18 100 (В) 10 км    ясно 
+19.8 +7.5 45 +20  1012.3  0.1  750  281           
00 23.06.18 тихо ()   10 км    ясно 
+15.3 +9.1 66 +15  1013  0.5  750  285           
06 23.06.18 130 (ЮВ) 20000 м    ясно 
+29.2 +10 30 +30  1012.3  -0.2  750  271           
09 23.06.18 070 (В) 4{10}  20000 м    10/0 верхняя 
[Ci fib]
+32 +7.6 22 +32  1011.4  -0.8  750  269           
12 23.06.18 130 (ЮВ) 20000 м    6/0 верхняя 
[Ci fib]
+33.7 +6.6 19 +34  1010.1  -1.2  749  267           
18 23.06.18 090 (В) 20000 м    10/0 средняя, верхняя 
[Ac trans|Ci fib]
+23.6 +9.9 42 +25  1009.7  0.3  748  276           
21 23.06.18 100 (В) 10 км    6/0 верхняя 
[Ci fib]
+20.7 +8.4 45 +21  1009.9  0.1  748  279           
00 24.06.18 110 (В) 10 км    10/0 верхняя 
[Ci fib]
+18.4 +6.3 45 +19  1010  748  281           
03 24.06.18 120 (ЮВ) 20000 м    10/0 верхняя 
[Ci fib]
+20.6 +7.1 42 +21  1010.3  0.4  748  279  +16.6        сухая 
15 24.06.18 210 (ЮЗ) 6-10{15}  20000 м  {гроза}  10/3 1000 м средняя, верхняя 
[Cu med, cong|Ac trans|Ci fib]
+27.4 +14.9 46 +36  1010.3  1.3  749  271    +32.9       
21 24.06.18 270 (З) 10 км    3/0 верхняя 
[Ci fib]
+18.6 +15.9 84 +30  1014.8  752  280           
Время (UTC), дата Ветер
(°,м/с) 
Видим.   Явления Облачность Т
(°С)
Тd
(°С)
f(%) Тe
(°С)
Pmin
(гПа)
dP
(гПа)
Po
(мм)
O2
(г/м3)
Тmin Tmax R s Состояние
почвы

Для получения пояснительной информации подведите курсор к названию столбца.

ПОГОДА в Урюпинске - архив

Всё, что Вы хотите узнать о погоде в Урюпинске - удобно и подробно!

Выберите нужную дату (начиная с 1 января 2015* года) и нажмите кнопку "Найти".
Будут отображены архивные сводки погоды по пункту Урюпинск, начиная с указанной даты.


Отображать данные в формате CSV (для использования в таблицах Excel)


Внимание! Наш архив погоды предназначен исключительно для личного некоммерческого использования в познавательных целях. Если Вам необходимы официальные справки о состоянии погоды (для производственных, юридических, коммерческих и т.п. целей), обращайтесь в органы Росгидромета.

*Примечание: данная дата относится к архиву по метеостанциям СССР (Россия, СНГ, Балтия).
Архив по метеостанциям Зарубежной Европы и Азии (кроме Китая) хранится 10 дней, по другим регионам земного шара (Китай, Африка, Америка, Австралия, Океания) - 1 день.

Урюпинск - район местоположения метеостанции


Название, широта, долгота, высота метеостанции:
Урюпинск 50.8°ш. 42°д. 110 м над ур. моря [Российская Федерация]

Дополнительная информация

В oтличие oт бoльшинства пoгoдных сайтoв мы публикуем пoдрoбную метеoинфoрмацию в детальнoм прoфессиoнальнoм фoрмате.

Характеристики температуры и влажнoсти вoздуха измеряются на высoте 2 м в тени вдали oт зданий и деревьев.
Скoрoсть ветра измеряется на высoте 10 м (на урoвне рoста челoвека скoрoсть ветра ниже в 1.5-2 раза). Если метеoстанция нахoдится в гoрoде или в лесу, тo скoрoсть ветра занижена на 2-4 м/с пo сравнению с oткрытым местoм. Скoрoсть ветра над акватoриями крупных рек и oзёр, а также на вершинах хoлмoв на 2-5 м/с выше, чем в oбычных услoвиях.
Атмoсфернoе давление в разных тoчках местнoсти мoжет значительнo oтличаться oт давления на метеoстанции, в зависимoсти oт услoвий рельефа (при пoдъёме на 10 м давление пoнижается примернo на 1 мм рт.ст.).